Flag for U.S.A. Weather past 2 weeks in Irving, Texas, U.S.A.

Now
82 °F

More clouds than sun.


Feels Like: 85 °F
Forecast: 72 / 84 °F
Wind: 10 mph from Southeast

Location: Dallas / Fort Worth International Airport

Current Time: May 27, 2015 at 7:15:28 PM

Latest Report: May 27, 2015 at 6:53 PM


Visibility: 10 mi

Pressure: 29.97 "Hg

Humidity: 65%

Dew point: 69 °F

Location of IrvingLocation

Historic Weather in Irving — Graph

°F

Irving temperature yesterday

Maximum temperature yesterday: 80 °F (at 3:53 PM)
Minimum temperature yesterday: 58 °F (at 1:53 AM)
Average temperature yesterday: 68 °F

Past Weeks' High & Low Weather Summary

 TemperatureHumidityPressure
High88 °F (May 18, 3:53 PM)100% (May 13, 1:53 PM)30.21 "Hg (May 13, 1:53 PM)
Low55 °F (May 21, 6:58 AM)50% (May 18, 3:53 PM)29.70 "Hg (May 16, 6:53 PM)
Average70 °F87%29.97 "Hg
* Reported May 12 5:53 PM — May 27 5:53 PM, Irving, Weather by CustomWeather, © 2015

Note: Actual official high and low records may vary slightly from our data, if they occured in-between our weather recording intervals... More about our weather records

Advertising

Irving weather history for previous 24 hours

 ConditionsComfort  
Time TempWeatherWind HumidityBarometerVisibility
5:53 PM
Wed, May 27
81 °FMore clouds than sun.9 mph65%29.97 "Hg10 mi
4:53 PM82 °FPartly sunny.6 mph63%29.99 "Hg10 mi
3:53 PM85 °FPassing clouds.10 mph55%30.00 "Hg10 mi
2:53 PM84 °FBroken clouds.10 mph55%30.01 "Hg10 mi
1:53 PM83 °FBroken clouds.10 mph55%30.04 "Hg10 mi
12:53 PM81 °FScattered clouds.12 mph54%30.06 "Hg10 mi
11:53 AM78 °FPassing clouds.10 mph58%30.06 "Hg10 mi
10:53 AM77 °FPassing clouds.9 mph58%30.07 "Hg10 mi
9:53 AM73 °FPassing clouds.10 mph64%30.07 "Hg10 mi
8:53 AM69 °FScattered clouds.5 mph73%30.06 "Hg10 mi
7:53 AM64 °FScattered clouds.5 mph87%30.02 "Hg10 mi
6:53 AM61 °FPassing clouds.5 mph90%29.98 "Hg10 mi
5:53 AM61 °FPassing clouds.No wind90%29.96 "Hg10 mi
4:53 AM63 °FPassing clouds.3 mph87%29.95 "Hg10 mi
3:53 AM64 °FMostly cloudy.8 mph84%29.96 "Hg10 mi
2:53 AM65 °FMostly cloudy.12 mph81%29.96 "Hg10 mi
1:53 AM67 °FMostly cloudy.14 mph73%29.90 "Hg10 mi
12:53 AM65 °FThunderstorms. Partly cloudy.28 mph91%29.91 "Hg10 mi
11:53 PM
Tue, May 26
67 °FThunderstorms. Overcast.18 mph76%29.94 "Hg10 mi
10:53 PM66 °FThunderstorms. Mostly cloudy.21 mph81%29.96 "Hg10 mi
9:53 PM65 °FThunderstorms. Mostly cloudy.9 mph91%30.03 "Hg8 mi
8:53 PM75 °FThunderstorms. More clouds than sun.10 mph90%29.94 "Hg10 mi
7:53 PM77 °FThunderstorms. Mostly cloudy.10 mph79%29.94 "Hg10 mi
Weather by CustomWeather, © 2015

See weather overviewHow to use our weather pages